Flag for Netherlands Weather past 2 weeks in Apeldoorn, Netherlands

Now
63 °F

Partly cloudy.


Feels Like: 63 °F
Forecast: 51 / 65 °F
Wind: 10 mph from Northwest

Location: Deelen

Current Time: Sep 1, 2015 at 4:50:49 AM

Latest Report: Sep 1, 2015 at 3:55 AM


Visibility: N/A

Pressure: 29.80 "Hg

Humidity: 94%

Dew point: 61 °F

Location of ApeldoornLocation

Historic Weather in Apeldoorn — Graph

°F

Apeldoorn temperature yesterday

Maximum temperature yesterday: 82 °F (at 2:55 PM)
Minimum temperature yesterday: 63 °F (at 3:25 AM)
Average temperature yesterday: 71 °F

Past Weeks' High & Low Weather Summary

 TemperatureHumidityPressure
High82 °F (Aug 31, 2:55 PM)100% (Aug 17, 3:25 AM)30.24 "Hg (Aug 17, 3:25 AM)
Low46 °F (Aug 29, 6:55 AM)37% (Aug 23, 3:25 PM)29.47 "Hg (Aug 24, 3:55 PM)
Average64 °F79%29.94 "Hg
* Reported Aug 17 3:25 AM — Sep 1 3:55 AM, Apeldoorn, Weather by CustomWeather, © 2015

Note: Actual official high and low records may vary slightly from our data, if they occured in-between our weather recording intervals... More about our weather records

Advertising

Apeldoorn weather history for previous 24 hours

 ConditionsComfort  
Time TempWeatherWind HumidityBarometerVisibility
3:55 AM
Tue, Sep 1
63 °FPartly cloudy.10 mph94%29.80 "HgN/A
3:25 AM63 °FPartly cloudy.8 mph100%29.80 "HgN/A
2:55 AM63 °FOvercast.8 mph100%29.80 "HgN/A
2:25 AM64 °FMostly cloudy.9 mph94%29.80 "HgN/A
1:55 AM64 °FMostly cloudy.9 mph94%29.80 "HgN/A
1:25 AM64 °FPassing clouds.9 mph94%29.80 "HgN/A
12:55 AM66 °FPassing clouds.9 mph94%29.77 "HgN/A
11:55 PM
Mon, Aug 31
66 °FPartly cloudy.8 mph94%29.77 "HgN/A
11:25 PM66 °FMostly cloudy.10 mph100%29.77 "HgN/A
10:55 PM68 °FMostly cloudy.10 mph94%29.77 "HgN/A
10:25 PM68 °FMostly cloudy.10 mph94%29.77 "HgN/A
9:55 PM68 °FPartly cloudy.9 mph100%29.77 "HgN/A
9:25 PM68 °FBroken clouds.8 mph100%29.77 "HgN/A
8:55 PM68 °FLow clouds.6 mph100%29.77 "HgN/A
8:25 PM68 °FBroken clouds.7 mph100%29.77 "HgN/A
7:55 PM70 °FBroken clouds.7 mph94%29.77 "HgN/A
7:25 PM70 °FBroken clouds.9 mph94%29.77 "HgN/A
6:55 PM72 °FBroken clouds.8 mph88%29.77 "HgN/A
6:25 PM73 °FBroken clouds.8 mph89%29.77 "HgN/A
5:55 PM75 °FThunderstorms. Fog.12 mph83%29.77 "HgN/A
5:25 PM77 °FMostly cloudy.5 mph74%29.74 "HgN/A
4:55 PM79 °FOvercast.7 mph70%29.74 "HgN/A
4:25 PM81 °FPassing clouds.9 mph66%29.74 "HgN/A
3:55 PM82 °FPassing clouds.8 mph58%29.74 "HgN/A
3:25 PM81 °FPassing clouds.9 mph66%29.74 "HgN/A
2:55 PM82 °FPassing clouds.10 mph62%29.77 "HgN/A
2:25 PM81 °FSunny.7 mph66%29.77 "HgN/A
1:55 PM81 °FPassing clouds.8 mph66%29.77 "HgN/A
1:25 PM79 °FPartly sunny.10 mph70%29.80 "HgN/A
12:55 PM79 °FPassing clouds.9 mph70%29.80 "HgN/A
12:25 PM77 °FPassing clouds.9 mph74%29.80 "HgN/A
11:55 AM77 °FSunny.9 mph74%29.83 "HgN/A
11:25 AM75 °FSunny.10 mph78%29.83 "HgN/A
10:55 AM73 °FPassing clouds.8 mph78%29.83 "HgN/A
10:25 AM73 °FPartly sunny.9 mph78%29.83 "HgN/A
9:55 AM72 °FPassing clouds.9 mph83%29.86 "HgN/A
9:25 AM70 °FScattered clouds.9 mph83%29.86 "HgN/A
8:55 AM68 °FSunny.7 mph88%29.86 "HgN/A
8:25 AM66 °FPartly sunny.6 mph94%29.89 "HgN/A
7:55 AM66 °FOvercast.5 mph94%29.89 "HgN/A
7:25 AM64 °FOvercast.5 mph94%29.89 "HgN/A
6:55 AM64 °FOvercast.8 mph94%29.89 "HgN/A
6:25 AM63 °FMostly cloudy.6 mph100%29.92 "HgN/A
5:55 AM63 °FOvercast.5 mph100%29.92 "HgN/A
5:25 AM64 °FMostly cloudy.3 mph94%29.89 "HgN/A
4:55 AM63 °FOvercast.2 mph100%29.89 "HgN/A
4:25 AM63 °FOvercast.7 mph100%29.92 "HgN/A
Weather by CustomWeather, © 2015

See weather overviewHow to use our weather pages